Regional Weather Roundup
Issued by NWS Kansas City/Pleasant Hill, MO

Home | Current Version | Previous Version | Text Only | Print | Product List | Glossary On
Versions: 1 2 3 4 5 6 7 8 9 10 11 12 13 14 15 16 17 18 19 20 21 22 23 24 25 26 27 28 29 30 31 32 33 34 35 36 37 38 39 40 41 42 43 44 45 46 47 48 49 50
000
ASUS43 KEAX 010011
RWREAX

WEATHER ROUNDUP FOR EASTERN KANSAS AND NORTHWEST MISSOURI
NATIONAL WEATHER SERVICE KANSAS CITY/PLEASANT HILL MO
600 PM CST SAT FEB 28 2015

KSZ040-057-103>105-MOZ028-029-037-043-010100-
...KANSAS CITY METROPOLITAN AREA...

CITY           SKY/WX    TMP DP  RH WIND       PRES   REMARKS
K.C. INTL      LGT SNOW  22  18  85 SE6       30.37S FOG     WCI  14
6HR MIN TEMP:  21; 6HR MAX TEMP:  23; 6HR PCP:  0.06;

K.C. DOWNTOWN  LGT SNOW  24  18  77 SE6       30.39S WCI  17
6HR MIN TEMP:  23; 6HR MAX TEMP:  25; 6HR PCP: TRACE;

LEES SUMMIT    LGT SNOW  22  18  85 E5        30.37F FOG     WCI  16
6HR MIN TEMP:  21; 6HR MAX TEMP:  23; 6HR PCP:  0.07;

OLATHE - IXD   LGT SNOW  22  18  85 E6        30.37S FOG     WCI  14
6HR MIN TEMP:  20; 6HR MAX TEMP:  22; 6HR PCP:  0.06;

OLATHE - OJC   LGT SNOW  22  19  89 E5        30.35F FOG     WCI  16
6HR MIN TEMP:  20; 6HR MAX TEMP:  23; 6HR PCP:  0.05;

LAWRENCE       CLOUDY    23  18  81 SE6       30.38F WCI  16

$$

MOZ001>008-011>017-020>025-030>033-038>040-044>046-053-054-010100-
...NORTHERN AND CENTRAL MISSOURI...

CITY           SKY/WX    TMP DP  RH WIND       PRES   REMARKS
ST. JOSEPH     CLOUDY    22  17  81 S3        30.40S
6HR MIN TEMP:  22; 6HR MAX TEMP:  24; 6HR PCP:  0.02;

MOSBY          LGT SNOW  23  21  93 SE5       30.40S WCI  17
WARRENSBURG    LGT SNOW  23  21  93 CALM      30.40F
WHITEMAN AFB   LGT SNOW  23  20  90 SE5       30.39F VSB 1   WCI  17
6HR MIN TEMP:  22; 6HR MAX TEMP:  23; 6HR PCP:  0.12;

CLINTON        LGT SNOW  27  25  93 CALM      30.40S
SEDALIA        SNOW      24  21  88 E5        30.40F VSB 1/2 WCI  18
6HR MIN TEMP:  23; 6HR MAX TEMP:  24; 6HR PCP:  0.19;

WARSAW         NOT AVBL
MARSHALL       LGT SNOW  27  23  86 E5        30.43  VSB 1   WCI  21
CHILLICOTHE      N/A     23  17  78 SE6       30.42F WCI  16
6HR MIN TEMP:  23; 6HR MAX TEMP:  24; 6HR PCP:  0.04;

KIRKSVILLE     LGT SNOW  20  18  92 E9        30.42F FOG     WCI   9
6HR MIN TEMP:  20; 6HR MAX TEMP:  23; 6HR PCP:  0.04;


$$

MOZ041-047>049-056>058-063>065-088>090-097-010100-
...EASTERN AND SOUTHERN MISSOURI...

CITY           SKY/WX    TMP DP  RH WIND       PRES   REMARKS
ST. LOUIS INTL SNOW      25  21  86 E7        30.48S VSB 1/2 WCI  17
6HR MIN TEMP:  25; 6HR MAX TEMP:  28; 6HR PCP:  0.14;

SPIRIT OF STL  SNOW      24  22  91 E3        30.47S VSB 1/2
COLUMBIA       SNOW      23  21  92 E7        30.42S VSB 1/2 WCI  15
JEFFERSON CITY SNOW      24  22  91 E6        30.44F VSB 1/2 WCI  17
HANNIBAL       LGT SNOW  23  18  80 E5        30.46S WCI  17
ROLLA          LGT SNOW  24  21  88 E7        30.39R VSB 3/4 WCI  16
OSAGE BEACH    CLOUDY    25  21  86 E5        30.40F VSB 3/4 WCI  19
SPRINGFIELD    LGT SNOW  25  21  85 SE14      30.34F VSB 3/4 WCI  13
BRANSON        LGT SNOW  25  21  86 E6        30.37F WCI  18
NEVADA         LGT SNOW  23  21  93 E3        30.38S
JOPLIN         LGT SNOW  25  23  92 CALM      30.36S VSB 3/4
WEST PLAINS    LGT SNOW  24  21  88 NE7       30.40S FOG     WCI  16

$$

IAZ060-094-KSZ022-034>040-054-083-096-NEZ052-066-093-010100-
...KANSAS...SOUTHEAST NEBRASKA AND IOWA...

CITY           SKY/WX    TMP DP  RH WIND       PRES   REMARKS
TOPEKA         CLOUDY    24  18  77 SE6       30.38S WCI  17
6HR MIN TEMP:  21; 6HR MAX TEMP:  25; 6HR PCP:  0.06;

MANHATTAN      CLOUDY    24  18  77 S6        30.35S WCI  17
EMPORIA        CLOUDY    22  18  85 E6        30.34R WCI  14
CHANUTE        LGT SNOW  23  20  88 SE6       30.35F FOG     WCI  16
WICHITA        CLOUDY    23  17  78 SE5       30.30F WCI  17
OMAHA          LGT SNOW  23  16  74 S12       30.35F FOG     WCI  12
LINCOLN        CLOUDY    23  16  74 S10       30.33S WCI  12
FALLS CITY     CLOUDY    23  17  78 SE8       30.37S WCI  14
LAMONI         MOCLDY    21  16  81 SE7       30.36F WCI  12
DES MOINES     LGT SNOW  22  17  81 SE6       30.39F WCI  14

$$




USA.gov is the U.S. government's official web portal to all federal, state and local government web resources and services.